N1972A KLGA-KALB

Flight info

Callsign N1972A
Flight time 0h 33m
Altitude 5000
Route LGA IGN ALB
Aircraft B190/M-S/NC

Departure

Time 2026-04-23 14:56
Airport LaGuardia Airport (KLGA)

Arrival

Time 2026-04-23 15:29
Airport Albany International Airport (KALB)
Time Latitude Longitude Altitude Speed Heading
2026-04-23 14:40 40.77102 -73.86313 27 ft 0 kts 217°
2026-04-23 14:49 40.77110 -73.86306 27 ft 2 kts 217°
2026-04-23 14:49 40.77125 -73.86292 27 ft 3 kts 207°
2026-04-23 14:49 40.77143 -73.86288 27 ft 3 kts 159°
2026-04-23 14:50 40.77161 -73.86302 27 ft 3 kts 138°
2026-04-23 14:50 40.77172 -73.86319 27 ft 0 kts 127°
2026-04-23 14:51 40.77188 -73.86291 27 ft 13 kts
2026-04-23 14:51 40.77253 -73.86281 27 ft 9 kts 34°
2026-04-23 14:52 40.77246 -73.86195 27 ft 9 kts 123°
2026-04-23 14:52 40.77210 -73.86114 27 ft 9 kts 120°
2026-04-23 14:52 40.77174 -73.86034 27 ft 10 kts 120°
2026-04-23 14:52 40.77139 -73.85954 27 ft 12 kts 120°
2026-04-23 14:53 40.77110 -73.85876 27 ft 12 kts 88°
2026-04-23 14:53 40.77154 -73.85826 27 ft 4 kts 30°
2026-04-23 14:53 40.77155 -73.85826 27 ft 0 kts 30°
2026-04-23 14:54 40.77215 -73.85784 27 ft 15 kts 12°
2026-04-23 14:54 40.77255 -73.85812 27 ft 2 kts 305°
2026-04-23 14:55 40.77258 -73.85820 27 ft 0 kts 302°
2026-04-23 14:55 40.77266 -73.85836 27 ft 19 kts 302°
2026-04-23 14:55 40.77534 -73.86398 27 ft 111 kts 302°
2026-04-23 14:55 40.77989 -73.87351 310 ft 122 kts 302°
2026-04-23 14:56 40.78443 -73.88286 907 ft 127 kts 304°
2026-04-23 14:56 40.78944 -73.89319 1364 ft 142 kts 304°
2026-04-23 14:56 40.79711 -73.90217 1766 ft 156 kts 335°
2026-04-23 14:56 40.80817 -73.90353 2218 ft 166 kts
2026-04-23 14:57 40.81968 -73.90024 2660 ft 173 kts 12°
2026-04-23 14:57 40.83131 -73.89558 3065 ft 177 kts 13°
2026-04-23 14:57 40.84295 -73.89023 3471 ft 179 kts 13°
2026-04-23 14:57 40.85462 -73.88456 3876 ft 180 kts 14°
2026-04-23 14:58 40.86630 -73.87870 4279 ft 180 kts 14°
2026-04-23 14:58 40.87795 -73.87150 4626 ft 192 kts 20°
2026-04-23 14:58 40.88974 -73.86265 5027 ft 199 kts 22°
2026-04-23 14:58 40.90210 -73.85368 5385 ft 211 kts 26°
2026-04-23 14:59 40.91559 -73.84397 5486 ft 230 kts 28°
2026-04-23 14:59 40.93012 -73.83398 5500 ft 241 kts 28°
2026-04-23 14:59 40.94426 -73.82522 5507 ft 206 kts 25°
2026-04-23 14:59 40.95723 -73.81828 5489 ft 207 kts 22°
2026-04-23 15:00 40.97161 -73.81183 5484 ft 226 kts 17°
2026-04-23 15:00 40.98708 -73.80605 5495 ft 237 kts 11°
2026-04-23 15:00 41.00332 -73.80133 5497 ft 243 kts
2026-04-23 15:00 41.02015 -73.79820 5497 ft 244 kts 358°
2026-04-23 15:01 41.03697 -73.79724 5495 ft 240 kts 351°
2026-04-23 15:01 41.05329 -73.79865 5494 ft 235 kts 345°
2026-04-23 15:01 41.06938 -73.80227 5493 ft 231 kts 339°
2026-04-23 15:01 41.08482 -73.80751 5492 ft 229 kts 335°
2026-04-23 15:02 41.09494 -73.81156 5492 ft 228 kts 334°
2026-04-23 15:02 41.11520 -73.82007 5491 ft 231 kts 334°
2026-04-23 15:02 41.13075 -73.82601 5491 ft 235 kts 337°
2026-04-23 15:02 41.14660 -73.83080 5508 ft 233 kts 341°
2026-04-23 15:03 41.16258 -73.83375 5506 ft 233 kts 346°
2026-04-23 15:03 41.17876 -73.83460 5505 ft 234 kts 352°
2026-04-23 15:03 41.19503 -73.83348 5506 ft 236 kts 356°
2026-04-23 15:03 41.21131 -73.83082 5506 ft 237 kts 359°
2026-04-23 15:04 41.22752 -73.82725 5507 ft 236 kts
2026-04-23 15:04 41.24362 -73.82344 5502 ft 234 kts
2026-04-23 15:04 41.25955 -73.82008 5501 ft 231 kts 359°
2026-04-23 15:04 41.27539 -73.81773 5500 ft 228 kts 355°
2026-04-23 15:05 41.29105 -73.81668 5500 ft 224 kts 352°
2026-04-23 15:05 41.30652 -73.81692 5500 ft 221 kts 349°
2026-04-23 15:05 41.32174 -73.81827 5509 ft 218 kts 347°
2026-04-23 15:05 41.33670 -73.82029 5513 ft 216 kts 346°
2026-04-23 15:06 41.35154 -73.82238 5515 ft 215 kts 346°
2026-04-23 15:06 41.36638 -73.82404 5516 ft 214 kts 348°
2026-04-23 15:06 41.38125 -73.82493 5516 ft 215 kts 351°
2026-04-23 15:06 41.39618 -73.82493 5517 ft 215 kts 353°
2026-04-23 15:07 41.41135 -73.82402 5515 ft 222 kts 354°
2026-04-23 15:07 41.42683 -73.82268 5515 ft 225 kts 354°
2026-04-23 15:07 41.44247 -73.82153 5515 ft 226 kts 353°
2026-04-23 15:07 41.45818 -73.82096 5515 ft 226 kts 351°
2026-04-23 15:08 41.47383 -73.82108 5515 ft 226 kts 350°
2026-04-23 15:08 41.48951 -73.82169 5504 ft 228 kts 349°
2026-04-23 15:08 41.50550 -73.82259 5512 ft 234 kts 349°
2026-04-23 15:09 41.53867 -73.82331 5512 ft 243 kts 353°
2026-04-23 15:09 41.55560 -73.82281 5511 ft 246 kts 354°
2026-04-23 15:09 41.57265 -73.82222 5511 ft 247 kts 354°
2026-04-23 15:09 41.59006 -73.82275 5507 ft 252 kts 354°
2026-04-23 15:10 41.60177 -73.82316 5499 ft 255 kts 356°
2026-04-23 15:10 41.62553 -73.82238 5496 ft 258 kts 359°
2026-04-23 15:10 41.64341 -73.82199 5499 ft 258 kts 355°
2026-04-23 15:10 41.66135 -73.82253 5494 ft 260 kts
2026-04-23 15:11 41.67909 -73.81908 5504 ft 257 kts 13°
2026-04-23 15:11 41.69690 -73.81696 5496 ft 259 kts
2026-04-23 15:11 41.71473 -73.81943 5489 ft 259 kts 348°
2026-04-23 15:11 41.73204 -73.82556 5496 ft 258 kts 350°
2026-04-23 15:12 41.74975 -73.82510 5508 ft 254 kts 12°
2026-04-23 15:12 41.76696 -73.82106 5496 ft 250 kts 12°
2026-04-23 15:12 41.78420 -73.81950 5489 ft 249 kts
2026-04-23 15:12 41.80139 -73.82081 5489 ft 247 kts 358°
2026-04-23 15:13 41.81840 -73.82277 5488 ft 245 kts 359°
2026-04-23 15:13 41.83533 -73.82380 5488 ft 243 kts
2026-04-23 15:13 41.85230 -73.82351 5491 ft 246 kts
2026-04-23 15:13 41.86949 -73.82242 5498 ft 249 kts
2026-04-23 15:14 41.88689 -73.82133 5501 ft 252 kts
2026-04-23 15:14 41.90446 -73.82068 5502 ft 254 kts
2026-04-23 15:14 41.92220 -73.82056 5502 ft 256 kts 360°
2026-04-23 15:14 41.93997 -73.82108 5501 ft 256 kts 359°
2026-04-23 15:15 41.95778 -73.82201 5500 ft 256 kts 359°
2026-04-23 15:15 41.97554 -73.82279 5498 ft 256 kts
2026-04-23 15:15 41.99299 -73.81953 5504 ft 253 kts 17°
2026-04-23 15:15 42.00960 -73.81218 5503 ft 251 kts 24°
2026-04-23 15:16 42.02575 -73.80311 5497 ft 254 kts 26°
2026-04-23 15:16 42.04183 -73.79316 5496 ft 256 kts 27°
2026-04-23 15:16 42.05797 -73.78295 5494 ft 258 kts 25°
2026-04-23 15:16 42.07457 -73.77354 5493 ft 260 kts 20°
2026-04-23 15:17 42.09180 -73.76606 5493 ft 261 kts 13°
2026-04-23 15:17 42.10952 -73.76129 5493 ft 260 kts
2026-04-23 15:17 42.12749 -73.75964 5491 ft 258 kts 355°
2026-04-23 15:17 42.14527 -73.76126 5491 ft 256 kts 347°
2026-04-23 15:18 42.16260 -73.76575 5492 ft 253 kts 340°
2026-04-23 15:18 42.17942 -73.77233 5492 ft 251 kts 336°
2026-04-23 15:18 42.19586 -73.78000 5497 ft 250 kts 333°
2026-04-23 15:18 42.21227 -73.78762 5487 ft 250 kts 334°
2026-04-23 15:19 42.22887 -73.79445 5491 ft 250 kts 337°
2026-04-23 15:19 42.24580 -73.79984 5494 ft 251 kts 341°
2026-04-23 15:19 42.26312 -73.80330 5489 ft 252 kts 347°
2026-04-23 15:19 42.28052 -73.80456 5432 ft 250 kts 352°
2026-04-23 15:20 42.29187 -73.80398 5473 ft 243 kts 355°
2026-04-23 15:20 42.31383 -73.80068 5484 ft 235 kts 360°
2026-04-23 15:20 42.32978 -73.79633 5488 ft 234 kts
2026-04-23 15:20 42.34537 -73.79101 5488 ft 228 kts
2026-04-23 15:21 42.36042 -73.78610 5485 ft 218 kts
2026-04-23 15:21 42.37505 -73.78281 5481 ft 210 kts 359°
2026-04-23 15:21 42.38932 -73.78169 5490 ft 203 kts 353°
2026-04-23 15:21 42.40330 -73.78217 5492 ft 199 kts 348°
2026-04-23 15:22 42.41695 -73.78383 5493 ft 196 kts 345°
2026-04-23 15:22 42.43035 -73.78623 5494 ft 194 kts 343°
2026-04-23 15:22 42.44365 -73.78897 5494 ft 193 kts 342°
2026-04-23 15:22 42.45687 -73.79160 5505 ft 192 kts 342°
2026-04-23 15:23 42.47018 -73.79352 5403 ft 195 kts 344°
2026-04-23 15:23 42.48378 -73.79491 5220 ft 191 kts 346°
2026-04-23 15:23 42.49661 -73.79555 4975 ft 180 kts 348°
2026-04-23 15:23 42.50898 -73.79578 4710 ft 176 kts 349°
2026-04-23 15:24 42.52110 -73.79589 4451 ft 173 kts 350°
2026-04-23 15:24 42.53303 -73.79600 4203 ft 170 kts 350°
2026-04-23 15:24 42.54475 -73.79627 3962 ft 168 kts 351°
2026-04-23 15:24 42.55630 -73.79688 3736 ft 166 kts 351°
2026-04-23 15:25 42.56773 -73.79754 3525 ft 163 kts 351°
2026-04-23 15:25 42.57897 -73.79808 3324 ft 161 kts 352°
2026-04-23 15:25 42.59005 -73.79850 3123 ft 159 kts 352°
2026-04-23 15:25 42.60098 -73.79883 2920 ft 157 kts 353°
2026-04-23 15:26 42.61182 -73.79911 2719 ft 155 kts 353°
2026-04-23 15:26 42.62239 -73.79940 2534 ft 150 kts 353°
2026-04-23 15:26 42.63271 -73.79997 2341 ft 146 kts 354°
2026-04-23 15:26 42.64273 -73.80124 2135 ft 146 kts 356°
2026-04-23 15:27 42.65275 -73.80252 1945 ft 143 kts 359°
2026-04-23 15:27 42.66258 -73.80244 1761 ft 141 kts
2026-04-23 15:27 42.67224 -73.80118 1575 ft 139 kts
2026-04-23 15:27 42.68187 -73.80062 1382 ft 138 kts 355°
2026-04-23 15:28 42.69144 -73.80130 1206 ft 137 kts 352°
2026-04-23 15:28 42.70091 -73.80315 1021 ft 138 kts 354°
2026-04-23 15:28 42.71042 -73.80405 832 ft 136 kts 360°
2026-04-23 15:28 42.71979 -73.80395 658 ft 135 kts
2026-04-23 15:29 42.72924 -73.80387 435 ft 137 kts 359°
2026-04-23 15:29 42.73845 -73.80435 290 ft 117 kts 357°
2026-04-23 15:29 42.74513 -73.80449 290 ft 79 kts 358°
2026-04-23 15:29 42.74921 -73.80472 290 ft 30 kts 356°
2026-04-23 15:30 42.75077 -73.80483 290 ft 24 kts 357°
2026-04-23 15:30 42.75251 -73.80491 290 ft 20 kts 358°
2026-04-23 15:30 42.75348 -73.80495 290 ft 9 kts 358°
2026-04-23 15:30 42.75397 -73.80524 290 ft 6 kts 291°
2026-04-23 15:31 42.75400 -73.80571 290 ft 0 kts 269°